Wind_Speed
17 19 19 17 17 17 17 18 20 22 24 25 25 27 27 26 26 24 23 24 25 25 25 25 25 25 25 26 25 24 23 22 21 20 20 20 19 17 15 14 14 15 14 13 12 13 13 12 11 11 10 10 10 10 11 10 10 9 8 8 7 6 6
16 17 18 18 17 18 19 19 22 24 24 25 25 26 27 26 26 26 24 24 26 26 26 26 25 26 26 26 25 25 24 23 21 20 19 19 18 17 16 15 14 14 14 13 12 12 12 11 11 11 10 10 10 10 11 10 10 9 8 8 8 7 6
15 16 17 18 17 18 19 20 22 25 26 26 26 26 27 27 28 29 27 25 26 26 25 26 27 27 26 25 25 25 24 23 21 20 19 18 17 17 16 15 15 14 14 13 12 11 11 12 12 11 10 10 10 10 10 10 10 9 8 8 8 8 7
15 16 17 18 19 19 19 19 21 25 27 27 28 28 29 30 29 29 28 27 27 27 27 27 27 27 26 25 25 24 24 23 21 20 18 17 16 16 16 15 14 13 13 13 12 11 11 11 11 11 11 10 10 10 10 10 10 9 9 8 8 8 8
16 16 16 17 18 17 17 18 21 25 27 28 28 28 29 30 29 27 27 27 27 29 30 29 27 25 25 24 24 23 23 23 21 19 18 16 16 17 17 16 14 13 13 12 12 12 12 11 11 11 11 11 11 11 10 10 10 10 9 9 8 8 8
14 15 15 16 17 17 18 19 23 28 29 28 29 28 28 29 28 28 28 27 28 28 29 28 26 25 25 24 23 21 21 21 20 19 18 17 18 18 17 16 15 14 13 13 13 13 12 12 12 12 12 12 12 12 11 11 11 10 9 9 9 8 8
13 14 16 16 16 17 18 19 22 27 29 28 28 27 28 28 28 29 29 28 29 28 27 28 27 26 25 24 23 21 20 21 21 21 19 18 19 18 16 17 18 17 15 14 14 14 14 14 14 14 13 13 12 12 12 11 11 10 10 10 9 9 8
13 14 15 16 15 15 16 16 18 22 25 25 26 27 27 27 27 28 29 28 28 28 28 28 27 26 24 23 22 22 22 23 23 21 20 20 21 20 19 21 22 20 18 17 17 16 16 15 15 15 15 14 13 13 12 12 12 11 10 11 10 10 10
12 13 13 14 15 14 14 14 15 19 22 24 25 25 26 26 26 27 28 28 27 28 29 28 27 25 23 23 24 25 26 26 24 23 21 23 25 24 22 23 23 23 23 21 19 19 19 18 17 16 16 15 14 14 14 13 13 12 12 12 12 11 11
9 10 11 12 13 13 12 13 14 16 18 21 23 24 25 26 25 26 26 27 27 28 29 28 26 24 23 25 27 29 30 26 24 25 25 25 26 24 22 20 20 22 24 22 20 20 20 19 18 17 17 16 15 15 15 15 14 14 13 13 13 13 13
7 9 9 11 12 12 13 13 14 14 14 18 21 23 23 25 25 25 25 26 26 26 27 27 25 24 25 27 29 31 33 29 26 26 25 24 25 25 23 19 18 19 23 24 22 21 21 21 20 20 20 19 18 17 17 16 15 15 15 14 14 14 15
7 8 9 11 12 13 13 13 13 14 14 17 21 22 22 24 25 24 24 26 26 25 24 24 25 26 27 28 28 31 32 29 26 26 26 27 28 27 26 26 26 26 27 29 28 26 25 24 23 23 24 23 21 18 17 17 17 16 16 16 15 15 15
7 8 9 11 12 12 13 13 14 16 15 18 21 22 22 23 24 24 24 25 25 23 22 23 26 27 28 28 27 27 27 26 26 27 30 33 34 31 30 32 32 31 32 33 31 29 27 25 24 25 26 25 24 21 18 17 18 18 17 17 16 16 16
8 9 10 11 12 13 15 15 15 16 16 18 21 22 22 22 23 23 23 22 22 21 21 22 25 26 27 26 24 23 23 24 29 35 37 36 37 36 36 37 36 34 35 33 29 27 26 24 24 24 24 24 24 23 21 18 18 18 18 18 18 17 17
9 10 11 13 14 15 15 15 15 16 16 17 20 22 21 21 22 22 21 20 21 21 21 21 23 24 24 23 21 21 22 24 31 39 40 36 38 40 40 40 40 38 36 34 31 28 25 23 22 22 22 24 25 25 24 20 19 19 20 19 18 17 16
10 11 13 14 15 15 15 15 15 16 16 17 19 21 21 21 21 22 21 21 21 22 22 21 22 23 23 22 21 22 25 26 28 36 39 38 39 42 42 41 40 37 37 36 32 28 26 24 21 20 21 24 26 26 25 22 20 21 22 21 20 17 15
11 12 13 14 14 14 14 15 15 16 17 17 19 22 22 21 21 21 21 21 22 23 23 22 23 24 22 21 22 25 28 27 26 33 40 41 39 41 42 40 36 34 36 36 31 28 27 25 22 20 20 21 22 24 24 23 21 22 24 25 24 21 17
12 13 13 13 14 14 15 17 17 18 18 18 20 22 22 21 21 21 21 22 21 22 23 22 23 23 21 23 25 27 29 28 26 29 37 41 40 38 36 33 29 29 31 32 31 29 26 24 23 21 20 19 20 21 21 22 21 22 24 24 23 22 19
12 12 12 12 13 15 16 17 16 16 17 18 20 22 22 21 21 21 21 21 20 21 22 22 22 22 22 25 27 28 28 27 26 27 31 38 39 32 27 26 25 26 26 27 30 30 28 28 26 22 21 20 20 20 18 17 18 20 22 22 22 20 19
11 10 10 11 12 14 14 13 13 15 17 19 20 20 20 20 19 18 19 20 19 20 21 21 21 22 24 26 27 27 27 26 27 28 29 33 34 28 25 25 25 25 25 25 26 27 27 29 25 21 22 22 20 18 17 16 17 19 20 20 22 22 21
9 10 10 11 12 12 13 13 13 14 17 19 19 19 19 18 17 17 18 19 19 20 20 20 20 21 24 26 26 26 25 25 28 28 27 29 29 25 24 25 24 23 23 21 21 21 22 23 20 18 20 20 18 16 15 16 18 20 19 19 21 22 22
9 11 11 11 12 12 14 15 16 17 18 19 19 19 19 19 19 19 19 19 19 19 19 19 20 21 22 24 24 24 24 25 27 27 26 28 29 25 24 25 25 22 20 17 17 18 18 18 18 18 18 17 15 15 14 15 16 18 18 18 20 21 21
10 11 11 12 13 14 16 17 18 19 20 20 20 20 19 19 20 19 19 19 18 19 19 18 19 20 21 22 22 22 24 25 26 26 26 27 28 27 26 27 25 21 20 19 18 18 18 17 17 18 17 15 14 14 14 14 16 17 18 18 19 19 20
10 11 12 12 13 15 18 20 20 20 20 20 20 19 20 21 21 20 19 18 18 18 18 17 18 18 19 21 21 21 23 25 26 26 25 25 27 27 27 27 25 21 19 20 19 18 17 16 16 16 14 13 12 13 14 15 14 14 16 17 17 17 18
9 10 11 13 15 17 18 20 21 20 19 19 19 20 21 22 22 20 18 17 16 16 15 16 17 17 18 20 21 20 22 24 25 25 24 24 25 25 24 24 22 19 17 18 19 17 15 17 19 16 12 10 10 12 14 14 13 13 15 15 15 15 16
9 10 11 13 16 19 19 20 21 21 20 19 19 20 22 22 20 18 17 16 15 14 14 14 15 16 17 18 19 19 21 23 24 24 22 22 22 22 22 20 18 17 16 17 19 18 16 17 19 15 10 7 6 9 12 13 12 12 13 13 13 13 13
11 11 12 13 16 18 19 19 20 20 19 19 19 20 20 20 19 18 17 16 15 13 12 12 13 14 15 16 17 18 20 21 22 22 21 20 19 19 19 17 16 16 16 16 18 20 19 18 16 11 8 6 6 10 12 11 9 9 10 11 11 10 10
13 13 15 17 17 18 19 19 19 20 19 18 19 19 18 19 19 18 17 15 13 12 11 12 13 13 14 15 15 17 19 19 19 19 18 17 18 17 16 14 14 16 17 16 18 20 20 17 13 8 6 4 6 8 9 10 9 8 9 10 9 8 8
16 16 17 18 18 18 18 18 17 18 17 17 16 16 17 18 18 17 16 15 13 12 13 13 13 14 14 15 15 16 18 19 19 18 16 17 18 18 16 14 14 16 18 17 18 19 18 13 11 9 6 4 5 6 7 9 8 6 6 8 9 9 10
16 16 17 17 18 19 19 17 17 17 16 14 14 13 13 15 16 16 15 15 14 14 14 14 14 14 14 15 15 16 17 19 20 19 17 17 18 16 16 16 15 17 20 19 17 17 14 11 10 9 7 4 5 7 8 7 5 4 5 8 9 9 10
16 17 17 18 18 19 18 18 19 18 17 14 14 14 12 12 14 15 14 13 13 13 13 14 14 14 13 13 14 15 15 16 18 18 17 18 19 16 15 15 15 17 20 19 16 13 11 9 8 6 4 5 7 8 8 6 4 4 7 9 8 9 10
16 16 17 17 17 18 18 18 17 17 17 15 13 14 12 11 13 14 13 11 11 10 10 11 12 11 11 10 11 12 13 14 15 16 17 18 18 17 15 14 15 16 18 18 15 13 10 9 7 5 6 7 8 7 6 5 5 7 8 6 4 6 9
15 15 15 15 15 16 17 16 14 15 15 13 12 12 12 11 12 13 12 11 11 10 11 11 11 11 10 9 9 11 12 13 13 14 15 15 14 14 15 15 15 16 17 17 15 12 11 10 9 9 8 7 6 6 6 7 9 10 9 6 4 5 6
14 14 14 15 15 15 16 16 15 14 14 13 11 11 12 12 12 12 12 11 11 12 12 12 12 12 10 9 9 9 10 12 12 12 13 13 12 11 11 13 14 15 14 13 12 12 11 11 11 11 9 8 8 9 10 12 11 9 9 8 6 6 6
12 13 13 14 14 15 16 16 15 15 14 12 11 11 12 12 11 11 11 11 11 12 13 13 12 11 10 9 9 9 9 10 11 11 10 10 12 11 8 6 8 11 11 11 10 11 11 11 10 10 10 10 11 12 11 11 10 10 11 10 9 10 10
12 12 13 14 14 16 16 15 15 15 14 12 11 11 11 11 11 10 10 10 11 12 13 13 11 10 9 9 9 10 11 11 11 11 9 10 12 10 7 6 6 7 10 10 11 11 12 11 11 11 11 10 12 13 10 7 8 11 11 11 10 11 10
12 12 13 14 14 14 14 14 14 14 13 11 10 11 11 11 10 9 9 10 10 11 12 12 9 9 9 8 8 9 11 12 12 11 10 9 10 10 9 9 8 7 7 8 10 11 12 12 12 13 14 11 11 13 11 8 9 10 9 8 8 8 7
14 13 13 13 13 13 13 12 12 11 11 10 10 10 10 10 9 8 9 10 10 11 11 10 9 9 9 8 9 9 8 8 10 10 9 9 9 9 10 10 9 7 6 7 9 11 12 12 12 14 16 14 12 13 13 11 10 9 8 8 8 6 5
Wind_Direction
198 200 200 198 197 198 198 196 195 196 194 193 194 195 196 198 197 197 197 196 198 200 199 198 199 200 202 205 207 209 210 210 211 212 213 216 220 218 213 211 213 218 221 217 213 211 208 207 205 205 207 208 209 206 202 204 208 210 210 210 211 216 221
200 200 199 198 197 198 196 193 194 195 194 195 196 196 197 196 194 196 196 196 199 200 199 198 199 201 203 205 206 208 209 208 208 207 208 212 212 211 212 211 208 211 215 215 214 209 205 203 203 205 207 209 211 207 204 207 208 208 208 206 210 214 218
202 200 198 197 198 197 195 192 193 195 196 196 196 197 197 194 194 195 195 195 198 199 198 198 200 203 204 204 205 207 208 207 205 202 202 205 204 203 206 207 206 213 220 218 214 207 204 203 203 205 206 210 213 210 209 210 207 208 206 204 210 214 215
202 200 196 197 198 198 196 193 193 195 197 197 196 195 194 193 194 195 195 195 195 197 198 199 201 202 203 202 203 205 207 206 204 202 202 202 200 198 201 203 205 213 221 217 211 206 204 203 203 205 208 213 216 213 211 212 210 208 206 207 213 214 215
201 198 195 197 199 200 198 196 195 196 198 198 197 194 191 193 194 194 196 196 196 198 199 200 200 200 201 201 202 204 205 204 202 201 201 197 196 199 203 204 204 210 216 213 208 205 203 203 205 208 210 213 217 217 213 211 211 211 208 209 217 218 218
197 193 195 199 199 199 199 199 198 197 197 197 196 193 192 194 194 195 196 196 197 198 199 199 198 196 198 198 200 201 199 198 198 198 196 194 198 203 204 204 203 207 211 207 204 203 202 205 208 209 211 215 218 218 215 212 213 213 211 213 219 221 222
193 192 198 199 201 203 201 201 201 199 197 195 193 192 193 195 195 196 197 197 198 198 197 198 197 196 196 195 196 195 192 193 195 195 192 191 199 202 199 202 207 208 207 203 203 203 201 204 208 209 212 215 218 218 216 215 215 214 213 215 218 219 222
193 195 201 201 202 206 204 202 202 199 196 193 193 193 194 196 195 196 197 198 199 199 199 199 197 195 192 190 190 190 191 193 191 189 187 188 199 203 200 206 214 215 209 201 202 206 203 201 206 210 211 212 214 215 215 215 217 216 214 216 219 221 225
196 198 204 203 202 206 205 201 198 194 193 194 194 194 193 194 196 196 197 197 198 199 201 201 197 192 186 185 188 191 194 192 186 183 185 192 204 206 202 207 215 217 214 208 206 211 211 204 204 210 211 210 211 211 212 216 217 217 217 219 222 225 229
196 197 202 203 203 207 204 196 191 189 190 191 192 192 191 192 194 195 196 197 198 199 200 200 196 187 182 185 190 193 195 190 181 183 187 194 204 206 203 205 210 214 219 216 209 211 215 211 207 209 209 208 210 210 212 216 218 219 220 221 225 230 234
189 190 195 199 202 205 201 194 188 185 185 186 187 188 189 191 192 193 195 197 199 200 199 196 192 185 185 190 191 192 195 190 182 184 188 192 200 204 200 198 203 215 223 221 213 212 220 221 217 214 214 215 214 212 213 217 219 221 222 225 229 233 238
183 185 190 197 200 200 198 194 186 182 182 182 183 185 186 189 191 193 195 198 199 200 196 192 190 188 189 192 190 190 193 189 179 181 189 196 202 201 195 195 205 217 223 221 215 214 217 221 223 222 223 224 220 214 215 219 221 223 224 228 232 236 241
182 183 188 193 195 195 195 192 185 182 181 180 181 184 185 187 191 193 195 197 198 197 192 189 189 189 188 191 192 192 190 181 177 186 197 204 207 202 197 202 209 215 219 218 214 212 213 215 221 225 226 227 224 220 218 218 222 225 227 230 235 240 244
188 189 188 188 191 194 194 193 188 185 184 181 182 184 185 188 191 192 194 195 194 193 191 189 189 189 189 191 195 196 189 180 187 202 208 208 209 207 205 208 211 212 217 216 212 212 213 212 215 220 222 223 224 224 221 220 223 227 229 234 238 241 245
205 200 193 190 192 195 196 196 192 187 185 182 182 184 185 187 189 190 190 191 191 192 192 188 186 188 190 189 189 195 192 186 196 208 211 208 209 211 210 210 211 212 213 212 210 211 212 209 210 213 216 220 225 228 227 224 226 229 231 233 236 241 248
217 210 203 197 195 195 195 197 195 187 183 182 183 184 185 185 187 187 188 188 189 191 190 186 185 188 189 186 184 192 197 194 197 206 210 211 212 213 212 211 211 210 210 209 208 208 209 207 205 206 212 219 225 230 231 228 229 233 233 233 236 243 251
224 218 210 202 195 193 192 194 193 185 182 183 184 183 183 183 184 184 187 188 188 188 187 185 184 188 189 184 184 193 197 196 197 204 209 213 214 214 213 212 210 208 208 207 204 205 209 209 206 207 211 215 220 227 231 232 233 234 237 240 244 249 253
228 219 211 202 194 190 190 191 189 185 183 183 183 182 181 179 179 181 186 187 186 185 185 184 183 183 185 185 188 196 196 193 198 205 208 212 215 214 212 210 207 206 205 204 203 203 206 208 210 213 213 212 215 220 226 232 235 237 241 245 246 249 252
232 222 212 201 192 190 191 191 189 184 181 180 182 182 180 178 178 181 184 183 182 182 183 184 183 182 186 191 194 198 196 194 201 208 210 213 215 213 210 208 205 204 201 200 201 202 204 209 214 219 219 217 218 218 220 228 234 239 246 248 245 246 249
238 231 218 204 197 194 190 186 182 177 177 181 183 182 180 179 178 178 178 178 179 180 181 183 184 184 191 196 197 196 195 196 204 210 213 214 213 210 209 208 206 203 201 200 198 197 203 209 213 219 223 223 222 220 221 227 233 241 251 253 246 244 248
229 223 214 203 196 190 181 175 173 172 174 179 179 176 175 175 173 170 171 173 175 176 178 179 180 185 193 195 193 193 196 200 206 211 215 215 213 209 209 210 209 202 198 197 193 193 200 203 205 215 223 221 217 218 222 228 235 245 256 259 250 246 249
223 213 206 196 187 181 177 173 170 167 167 169 169 168 168 169 168 168 168 171 173 174 175 178 180 185 192 191 187 191 199 204 207 212 216 215 214 213 211 214 213 201 191 191 191 192 198 199 203 215 221 215 212 218 227 234 239 249 261 264 255 250 251
224 207 196 188 181 176 173 169 165 161 158 158 160 162 163 164 166 165 166 169 171 174 176 179 181 184 188 187 186 193 202 206 209 213 216 215 216 216 216 218 215 202 192 193 195 195 196 198 205 214 214 211 214 223 235 243 244 251 263 266 258 252 250
219 203 192 183 174 168 164 160 155 152 153 155 158 160 161 162 162 160 162 167 170 174 177 181 183 182 183 185 188 195 203 207 211 214 216 217 218 218 216 217 213 203 192 191 193 195 192 194 208 214 207 208 221 232 243 251 251 253 262 265 260 254 248
193 181 172 165 159 157 157 152 147 148 154 156 156 158 158 158 157 156 158 163 167 171 177 182 184 183 184 185 188 196 205 208 211 215 217 220 220 218 215 212 207 200 191 188 193 197 192 196 209 213 204 206 224 238 249 259 264 264 264 264 264 257 245
172 163 160 159 155 152 150 147 145 149 154 153 152 154 154 153 152 151 152 157 162 169 176 181 183 183 183 184 190 198 204 207 211 216 220 222 221 218 213 207 199 195 193 192 197 201 200 201 205 202 187 189 229 262 270 274 277 272 265 262 264 259 242
160 156 152 147 144 142 140 141 143 144 143 143 145 148 149 149 145 143 146 152 157 166 172 174 176 178 180 185 194 200 203 206 211 216 221 223 220 214 207 200 194 195 199 199 198 198 197 198 198 190 177 194 259 287 288 282 276 271 266 263 264 259 242
140 135 128 124 127 133 134 135 134 131 130 134 139 143 145 144 139 138 143 147 152 158 159 160 167 174 178 186 194 199 203 208 211 215 221 221 215 207 197 187 191 203 208 208 204 200 195 191 186 173 165 206 258 276 276 268 262 262 262 262 264 265 257
123 119 117 118 123 128 126 122 120 119 121 126 131 136 140 137 132 134 139 140 143 148 150 155 164 170 176 185 191 195 202 208 211 215 218 215 208 202 192 184 193 207 210 208 203 198 191 178 162 153 154 189 251 259 251 248 248 248 254 262 268 272 268
107 110 111 111 113 116 114 111 110 108 107 112 117 122 127 128 128 132 135 136 141 147 150 157 162 166 175 184 188 194 201 205 210 215 214 209 205 197 187 188 198 205 206 204 197 189 181 164 151 153 162 188 229 237 229 224 225 243 265 267 265 262 260
96 101 104 104 106 110 111 112 114 113 110 109 108 108 112 120 127 129 128 131 140 147 152 156 160 166 175 181 187 196 199 201 208 214 213 212 208 192 181 190 200 201 201 199 190 179 168 149 139 146 176 204 216 213 201 189 191 236 256 258 254 247 245
87 90 96 100 105 109 111 110 111 111 108 105 101 103 108 116 121 121 120 124 134 142 145 149 155 162 169 173 182 193 198 201 205 208 211 215 210 195 188 196 199 195 196 194 184 169 152 140 147 183 210 215 211 196 174 167 185 210 225 237 255 253 248
78 78 81 84 92 100 103 101 98 96 96 94 93 97 102 104 106 111 117 124 131 135 135 140 148 153 157 164 173 186 199 205 202 200 205 206 199 191 191 193 190 188 190 191 181 164 152 158 182 203 211 210 200 184 178 188 197 202 203 199 205 228 242
81 80 78 78 82 89 92 93 94 94 93 93 94 97 100 101 104 113 122 127 132 135 134 136 142 145 148 157 168 181 199 202 193 194 199 191 181 186 190 188 192 194 191 184 172 161 166 182 196 202 202 197 189 185 193 200 199 196 195 193 196 205 216
86 85 83 82 82 84 87 91 94 96 96 96 98 100 101 104 110 119 125 128 133 135 133 133 136 137 138 151 167 178 191 192 186 190 188 167 163 179 188 181 191 193 181 167 163 169 184 198 201 196 191 187 187 192 200 202 193 189 195 200 204 206 207
88 85 84 84 83 81 83 87 91 94 96 98 101 103 103 105 110 115 119 124 129 128 125 126 129 132 143 163 176 180 185 185 178 175 167 147 146 156 146 114 124 150 158 166 178 191 201 203 196 185 178 180 190 199 202 189 176 187 199 202 200 202 203
83 85 83 83 83 82 82 85 89 91 93 95 98 101 101 102 105 107 109 112 114 113 114 119 131 151 168 174 165 163 173 174 165 158 153 145 146 150 142 129 127 135 155 176 187 194 196 193 189 186 183 183 192 201 204 191 179 187 192 184 181 191 201
71 77 81 82 81 82 82 83 85 87 90 92 94 95 97 99 100 100 100 100 101 106 117 133 154 170 171 153 130 128 140 151 152 151 148 146 151 152 142 137 140 143 152 171 182 185 184 184 187 190 190 191 194 195 194 188 179 175 171 168 175 187 199
Height
715 716 718 721 723 727 729 731 735 739 742 746 749 753 756 760 763 766 768 771 774 778 781 784 786 789 791 794 796 798 800 803 805 807 809 811 814 815 817 819 821 822 824 825 826 827 828 830 831 832 833 834 835 835 836 836 837 838 838 839 840 840 840
710 712 713 715 718 721 723 726 729 733 736 740 744 748 751 754 758 761 764 767 770 774 777 780 783 785 787 790 793 795 797 799 802 804 806 809 812 813 815 817 819 821 822 824 825 826 828 829 830 831 832 833 834 834 835 835 836 836 837 837 838 839 839
706 707 708 710 712 715 717 719 723 726 730 734 737 742 745 748 752 755 759 763 766 770 773 776 778 781 784 786 789 791 794 796 799 801 804 806 809 811 813 815 816 819 821 822 824 825 826 828 829 830 831 832 833 834 834 834 835 835 835 836 836 837 838
701 701 703 706 706 709 711 712 716 719 723 727 730 735 739 743 747 750 754 758 762 766 769 772 774 777 780 783 786 788 790 793 796 799 802 804 806 808 810 813 814 817 819 821 822 823 825 826 827 828 829 830 832 832 833 833 833 834 834 835 835 836 836
698 697 700 703 703 705 706 707 710 713 718 722 726 730 734 738 742 747 751 754 757 761 763 767 771 774 777 779 782 785 787 791 794 796 799 801 804 806 808 810 812 814 816 818 820 821 822 824 825 827 827 828 830 831 831 832 832 833 833 834 834 835 835
694 696 697 698 698 700 700 701 703 706 712 716 721 726 729 734 738 742 746 750 753 756 760 764 767 770 773 776 779 782 785 788 791 793 796 798 801 803 805 807 809 811 813 814 816 818 819 821 823 824 825 826 828 829 830 830 831 832 832 833 834 834 834
689 691 692 692 693 693 694 696 697 701 707 711 716 722 725 729 733 737 741 744 748 752 756 759 763 766 769 772 776 779 782 785 787 790 793 795 798 800 802 803 804 806 809 810 812 814 816 818 819 821 822 824 825 827 828 829 830 831 831 832 833 833 833
683 686 687 688 688 689 690 693 695 699 704 708 712 716 720 725 728 732 736 739 744 748 751 755 758 762 766 769 773 775 777 779 782 785 789 791 794 796 797 799 800 802 804 806 808 810 812 814 816 818 819 821 823 825 826 828 829 830 830 831 831 832 832
678 681 683 683 684 685 687 689 693 697 701 705 708 711 716 720 723 727 731 735 739 742 746 750 754 758 763 766 768 769 771 773 777 781 785 787 789 791 794 796 798 799 800 802 804 805 808 810 812 815 816 818 820 822 824 825 826 827 828 829 830 830 830
677 680 681 681 682 682 684 686 690 693 697 701 705 709 713 716 719 724 727 730 734 737 741 746 751 756 759 761 762 762 765 770 774 779 782 783 785 788 792 795 797 798 799 801 802 803 805 807 808 811 814 815 817 819 821 823 824 825 826 827 828 828 828
677 680 681 682 682 682 683 685 688 691 693 697 702 705 709 713 716 720 723 726 729 733 737 742 747 751 753 754 756 757 762 768 772 775 779 780 781 784 788 792 795 797 798 799 799 801 803 805 806 808 810 812 814 816 818 820 822 823 823 825 825 826 826
678 679 681 682 682 682 683 684 687 689 691 695 699 702 706 710 713 717 720 723 726 730 734 739 743 746 747 750 752 754 759 764 768 772 774 774 775 778 782 784 785 787 789 791 794 795 796 799 802 805 807 809 811 813 815 817 819 820 821 822 823 823 824
675 677 679 679 680 682 682 684 685 687 689 692 696 700 703 706 710 713 716 720 723 728 732 735 739 741 743 746 749 753 757 761 765 766 766 766 768 773 776 777 778 780 782 785 789 791 792 794 798 801 804 807 809 811 813 814 816 818 818 820 821 821 821
673 675 676 677 678 680 681 683 683 684 686 689 693 697 700 704 707 710 714 718 722 726 729 732 735 738 741 744 748 753 757 759 760 759 758 761 764 767 770 772 775 776 778 782 786 789 789 790 794 797 800 803 806 808 810 812 813 814 816 817 818 819 819
672 672 673 674 675 676 678 680 681 682 684 686 690 694 697 701 705 708 712 716 720 723 726 729 733 736 739 742 746 751 755 755 755 754 756 759 760 762 765 767 770 772 774 777 781 784 786 787 791 794 796 799 802 804 806 808 810 811 813 814 815 816 817
669 669 669 669 670 671 673 676 678 679 682 684 687 690 694 698 701 705 709 713 717 720 723 727 731 733 737 740 743 748 751 752 752 753 755 756 756 759 761 764 767 769 770 773 776 780 783 786 789 792 793 795 798 801 803 805 806 807 809 811 813 814 815
664 664 664 663 665 667 669 673 675 677 679 681 683 686 690 694 698 702 706 709 713 717 720 724 727 731 734 736 740 745 748 748 749 750 751 752 754 756 758 761 764 766 767 769 773 777 780 784 787 790 791 792 795 797 799 801 803 804 806 808 810 812 812
660 660 659 659 661 663 666 669 671 672 674 677 680 684 687 691 695 699 702 706 710 713 718 721 724 728 731 734 738 742 744 745 746 747 748 749 751 753 756 759 761 763 765 767 770 774 777 780 784 787 789 790 791 794 795 797 799 801 803 805 807 809 809
655 655 655 656 657 659 661 663 665 668 671 674 678 681 685 688 692 696 699 704 708 711 715 719 722 725 728 732 736 738 739 741 742 744 746 746 748 751 754 756 757 760 763 764 767 770 772 775 778 782 786 787 788 791 792 795 796 798 799 801 803 805 806
652 652 651 653 654 656 658 661 663 666 669 673 676 679 684 687 691 695 698 702 706 709 713 716 719 722 726 729 733 734 736 738 739 741 743 744 746 749 750 752 755 757 759 762 764 766 769 772 775 779 782 784 786 788 789 792 793 794 796 798 799 801 802
649 649 650 651 652 655 657 659 661 664 667 671 674 678 682 686 689 694 697 701 704 708 711 714 717 720 724 727 730 732 733 735 737 739 740 743 745 746 747 750 753 755 757 760 762 765 769 771 774 778 780 781 783 785 787 788 790 791 793 794 795 797 799
644 645 646 647 649 652 654 656 658 661 664 668 672 676 680 684 688 692 695 699 703 706 709 712 715 718 722 725 726 729 731 733 735 737 739 741 743 743 745 749 752 753 755 759 761 765 769 771 773 777 779 780 781 783 784 786 787 788 789 791 792 794 795
636 639 641 642 645 648 651 654 656 659 663 666 670 674 678 682 686 690 693 697 700 704 707 710 713 716 719 721 723 726 729 731 733 735 737 739 740 742 744 747 750 751 753 756 760 763 767 770 772 776 777 777 780 781 783 784 784 785 786 788 789 791 792
631 634 636 638 641 645 649 652 654 659 663 665 669 673 676 681 684 688 692 695 698 701 705 708 711 714 716 719 721 724 727 729 731 733 735 737 738 740 742 744 748 749 750 754 759 762 765 768 772 774 774 775 779 780 781 782 782 782 784 785 786 788 788
630 632 634 636 639 644 648 651 653 658 662 665 668 672 675 679 682 685 689 693 696 700 703 706 710 712 714 717 719 722 725 727 729 731 733 735 736 738 740 743 746 748 749 752 756 760 763 766 770 772 772 774 777 779 780 780 779 780 781 782 783 784 786
632 633 635 636 639 643 648 651 652 656 661 664 668 671 673 677 680 683 687 691 695 699 702 705 708 711 713 716 718 721 723 725 727 729 731 733 735 736 739 742 744 746 748 751 754 757 761 764 768 769 769 771 775 777 778 777 777 778 779 779 780 782 783
630 632 633 635 640 643 647 651 653 655 659 663 667 670 673 675 678 682 686 690 693 697 701 704 707 710 713 716 717 720 722 723 726 728 729 731 733 736 738 740 741 744 747 750 752 755 758 762 765 765 765 768 771 774 775 775 775 776 777 777 779 780 781
629 631 633 636 641 645 647 651 654 656 660 664 667 669 672 675 677 680 684 688 692 696 699 703 707 709 712 714 716 719 721 723 725 726 728 730 732 735 737 737 740 743 745 748 750 752 755 758 760 761 761 764 768 771 773 773 774 774 775 776 777 778 779
630 632 634 637 642 646 648 652 656 659 662 665 668 671 673 675 677 679 683 687 691 695 698 702 705 707 710 712 714 717 720 722 724 726 727 729 731 733 734 735 738 741 743 745 747 749 751 753 755 757 760 763 766 769 770 771 772 773 773 774 775 776 777
631 633 636 639 645 649 652 655 659 662 666 669 671 674 676 677 678 680 683 686 690 694 697 700 702 705 708 710 712 714 717 720 723 724 726 728 730 731 731 733 736 738 740 743 745 747 749 751 753 756 758 761 764 766 767 768 770 771 772 772 773 774 775
636 638 640 644 650 654 656 659 661 664 668 671 672 674 677 680 681 682 684 687 691 694 697 699 701 703 706 709 711 713 716 719 721 723 724 727 729 729 729 732 734 736 738 741 743 745 747 749 751 754 757 760 762 763 764 765 768 770 771 771 772 772 773
643 645 647 651 654 657 659 662 664 665 668 671 673 675 679 682 683 684 686 690 693 696 698 700 702 704 706 709 712 715 717 719 720 722 723 725 726 727 727 729 731 733 736 738 741 742 744 746 750 753 756 758 759 760 761 763 766 769 770 770 771 772 773
650 651 654 656 659 661 662 664 667 669 671 674 676 678 680 683 683 685 688 691 693 696 698 700 703 705 707 709 712 715 718 719 720 721 722 724 725 726 726 728 729 731 733 736 737 739 741 745 748 752 754 756 757 758 761 763 766 767 767 768 769 770 771
655 656 659 661 662 664 665 666 669 672 674 677 679 681 682 683 685 687 690 692 694 697 698 700 702 704 705 708 711 714 717 719 720 721 722 723 724 726 727 728 730 732 733 734 735 737 741 745 747 750 752 754 756 758 760 762 763 763 763 765 766 768 770
658 660 662 664 666 666 667 668 671 673 676 679 681 683 683 685 687 689 691 693 695 697 698 700 701 702 705 708 711 714 717 719 720 720 721 722 724 726 728 729 730 731 733 734 735 738 742 744 746 748 751 753 755 757 758 758 758 758 760 762 764 766 767
660 662 664 666 668 668 669 671 673 675 678 680 682 684 685 686 688 690 692 694 696 696 697 699 700 702 705 709 711 714 716 718 719 719 721 723 724 727 729 730 731 732 732 734 736 739 742 743 745 747 749 751 753 754 755 755 755 756 759 761 763 765 765
661 662 665 667 669 670 671 673 675 676 679 681 683 684 686 687 689 691 693 694 695 695 696 698 701 703 706 708 711 713 715 717 718 719 721 723 725 727 728 729 731 733 734 735 737 739 742 744 746 748 749 750 751 752 753 754 754 756 758 760 762 763 763
663 664 667 668 669 672 673 675 676 678 680 682 683 684 686 688 690 692 693 694 695 696 698 701 704 705 706 708 711 713 715 717 718 720 722 724 726 728 728 730 732 734 735 736 738 740 742 744 746 748 749 750 751 752 753 754 754 756 757 759 760 761 761